Location: Chassagnes
(44.4047°N, 4.1657°E)
Time: 12:28:04
(UTC+00:00)

In-Cosmos 22 Rocket - Pass Details

Date: 27 October 2020
Orbit: 790 x 888 km, 81.2° (Epoch: 23 November)

Event Time Altitude Azimuth Distance (km) Brightness Sun altitude
Rises 18:03:55 0° 349° (NNW) 3,308 7.4 -15.7°
Reaches altitude 10° 18:06:17 10° 349° (N) 2,381 6.6 -16.1°
Maximum altitude 18:11:39 87° 264° (W) 817 4.1 -17.0°
Drops below altitude 10° 18:17:07 10° 173° (S) 2,416 6.5 -18.0°
Sets 18:19:32 0° 173° (S) 3,360 7.3 -18.4°
